FREGAT DEB, 45635

Orbit data source: Space-Track

FREGAT DEB, 45635 is space debris in LEO originally from a launch on Mon, 18 Jul 2011 UTC launched from the Tyuratam Missile And Space Complex (TTMTR). Debris objects in space refer to the collection of defunct objects orbiting the Earth. Examples of debris include non-operational satellites, rocket bodies, and fragments generated from explosions, collisions, or faulty payload assembly.

Loading next visibility...
FREGAT DEB details
Identifier
45635, 2011-037AB
Orbit
LEO
Last TLE update7 hours ago
Origin
Flag of CISVVKO VKS (CIS)
ManufacturerLavochkin
MissionSpacecraft
Bus & MotorUnknown
MassUnknown
Launch date (UTC)
2011-07-18 (14 years ago)
Launch vehicleUnknown
Launch site
Tyuratam Missile And Space Complex (TTMTR)
Object type
Payload
Rocket body
Debris
Shape & HBRUnknown
Radar Cross SectionSmall (<0.1 m²)

Expand to show TLE details & history

TLE from 7 hours ago
0 FREGAT DEB
1 45635U 11037AB  25037.79097428  .00123521  00000-0  25299-1 0  9990
2 45635  51.3189 272.0094 1256628 143.7823 225.5141 12.56679385195764
Epoch: 2025-02-06T18:59Z
Definitive object data (Epoch: 2025-02-06T18:59:00.177Z)
Latitude-0.00004°
Longitude-149.90386°
Altitude2,180.639 km
Speed6.494 km/s
True Right ascension18h 08m 02s
True Declination0° 00' 00"
Sunlit
Object was in daylight at TLE epoch
Visualization TLE readout
Latitude-33.84382°
Longitude61.48525°
Altitude1,171.639 km
Speed7.394 km/s
Apparent Right ascension11h 20m 32s
Apparent Declination-53° 41' 44"
Sunlit
Object is in full shadow
Visualization observer readout
Local Sidereal Time03:56:07
Azimuth131.068° SE
Elevation-42.891°
Doppler factor1
Orbital elements
Apogee altitude2,419.276 km
Perigee altitude455.087 km
Semi-major axis7,815.318 km
Eccentricity0.1256628
Inclination51.3189°
RAAN272.0094°
Arg. of periapsis143.7823°
True anomaly216.30214°
Mean anomaly225.5141°
Eccentric anomaly220.80868°
Mean motion3.1414 °/min
BSTAR0.025299
Orbital period114.6 mins
Loading maneuver chart data...
Loading historical data...
Loading historical data...
Loading historical data...
Loading historical data...
Loading historical data...
Loading historical data...
Loading historical data...

FREGAT DEB Visibility forecast

Observer location: undefined°, undefined

Span
Click to sort rows by Start time (UTC) header in descending order
Start Az.
Max El. time (UTC)
Max El. Az.
Max El.
End time (UTC)
End Az.
14 mins2025-02-07 16:02:49.631Z174.807° S2025-02-07 16:10:49.631Z131.65° SE22.393°2025-02-07 16:16:49.631Z84.869° E
16 mins2025-02-07 18:01:49.631Z223.019° SW2025-02-07 18:11:49.631Z112.116° ESE44.05°2025-02-07 18:17:49.631Z56.545° ENE
12 mins2025-02-07 20:04:49.631Z270.199° WNW2025-02-07 20:11:49.631Z335.961° NNW33.024°2025-02-07 20:16:49.631Z44.293° NE
6 mins2025-02-07 22:09:49.631Z318.883° NNW2025-02-07 22:12:49.631Z359.861° N22.202°2025-02-07 22:15:49.631Z48.261° ENE
6 mins2025-02-08 00:10:49.631Z321.504° NNW2025-02-08 00:13:49.631Z49.497° ENE35.624°2025-02-08 00:16:49.631Z104.347° ESE
|